CZ-6A DEB

Satellite information

Favourite Embed

Satellite Type and Status

DEBRISIN ORBIT

Key statistics

Satellite CZ-6A DEB at a glance.

Uptime

494

Days in orbit

Revolutions

≈ 14.0

Per day

Orbit

LEO

Low Earth Orbit

Inclination

89.1

Latest

Satellite identification and parameters

Extended collection of information and parameters for CZ-6A DEB.

Object identification

Identified? True

Debris? True

Object name: CZ-6A DEB

International designator: 2024-140MP

Object number (NORAD): 60988

Object ID (CCSDS): 60988

Country: PEOPLES REPUBLIC OF CHINA (PRC)

Current information (Y/N): Y

RCS size: SMALL

Orbital parameters

Period: 103.136 minutes

Inclination: 89.0852 deg

SMA: 7285.059 km

Apoapsis: 1020.606 km

Periapsis: 793.242 km

RAAN: 302.6174 deg

Eccentricy: 0.0156048

Argument of periapsis: 139.0874 deg

Mean anomaly: 222.2139 deg

Mean motion: 13.96217765 rev/day

Mean motion (dot): 0.00000466 rev/day2

B* drag term: 0.00029647 1/REarth

Two-line elements (TLE)

Creation date: Dec. 12, 2025, 7:26 a.m.

Reference frame: TEME

Reference center: EARTH

Epoch: Dec. 11, 2025, 9:35 p.m. UTC

TLE line 0: 0 CZ-6A DEB

TLE line 1: 1 60988U 24140MP 25345.89933816 .00000466 00000-0 29647-3 0 9995

TLE line 2: 2 60988 89.0852 302.6174 0156048 139.0874 222.2139 13.96217765 66576

Live tracking on map

Real-time ground track for satellite CZ-6A DEB.

In-orbit conjunctions

A list of the most updated potential collisions computed for object CZ-6A DEB.

Target Orbit TCA Probability of collision Miss distance Type
COSMOS 1072 LEO 2025-10-21 23:05:48 0.0001032745 458.0 (m) PAYLOAD
COSMOS 1275 DEB LEO 2025-05-10 09:37:30 0.0001669018 200.0 (m) DEBRIS
THOR ABLESTAR DEB * LEO 2024-11-13 10:06:02 0.0001694649 367.0 (m) DEBRIS
DELTA 1 DEB SSO 2024-10-16 22:36:23 0.001054044 118.0 (m) DEBRIS
LANDSAT 1 (ERTS 1) SSO 2024-10-15 04:37:15 0.0002391564 474.0 (m) PAYLOAD

Associated space launch

18 Low Earth Orbit communication satellites with Ku, Q and V band payloads for the G60 constellation operated by Shanghai Spacecom Satellite Technology (SSST) with funding backed by the Shanghai local government. Initial constellation will consist of 1296 satellites by 2027 with long term plans to expand it to 12000 satellites.

CZ-6A DEB was lifted into orbit during the mission ‘Long March 6A | G60 Polar Group 01’, on board a Long March 6A space rocket.

The launch took place on Aug. 6, 2024, 6:42 a.m. from Launch Complex 9A.

For more information about the launch, click the button.

Launch to space Long March 6A | G60 Polar Group 01
Long March 6A | G60 Polar Group 01

Agency: N/A

Status: Launch Successful

Launch date: Aug. 6, 2024, 6:42 a.m. UTC

Rocket: Long March 6A

Launch pad: Launch Complex 9A

Location: Taiyuan Satellite Launch Center, People's Republic of China

...

Latest news about this satellite

News about space launch
Brightness of first Chinese broadband constellation satellites alarms astronomers

The first satellites of a Chinese broadband constellation are significantly brighter than those of Western systems, posing a new challenge for astronomers.

News about space launch
Chinese rocket stage breaks up into cloud of more than 700 pieces of space debris

HELSINKI — A Chinese Long March 6A rocket’s upper stage has fragmented into a cloud of over 700 pieces of space debris, adding to concerns about long-term orbital safety. China […]

News about space launch
China's Thousand Sails Megaconstellation Kicks Off with Dangerous Debris Field

China's Thousand Sails Megaconstellation Kicks Off with Dangerous Debris Field


Newsletter sign-up

Weekly statistics, charts and insights to help you stay on top of the space industry.